Time,TemperatureF,DewpointF,PressureIn,WindDirection,WindDirectionDegrees,WindSpeedMPH,WindSpeedGustMPH,Humidity,HourlyPrecipIn,Conditions,Clouds,dailyrainin,SoftwareType,DateUTC
2015-03-26 00:11:00,76.1,71.0,30.05,SSW,202,3.0,3.0,84,0.00,,,0.00,weatherlink.com 1.10,2015-03-26 04:11:00,
2015-03-26 00:26:00,76.0,71.0,30.05,SSW,202,2.0,3.0,85,0.00,,,0.00,weatherlink.com 1.10,2015-03-26 04:26:00,
2015-03-26 00:41:00,75.9,71.0,30.04,SSW,202,2.0,3.0,84,0.00,,,0.00,weatherlink.com 1.10,2015-03-26 04:41:00,
2015-03-26 00:56:00,75.8,71.0,30.04,SSW,202,2.0,3.0,84,0.00,,,0.00,weatherlink.com 1.10,2015-03-26 04:56:00,
2015-03-26 01:11:00,75.6,71.0,30.04,SSW,202,0.0,2.0,84,0.00,,,0.00,weatherlink.com 1.10,2015-03-26 05:11:00,
2015-03-26 01:26:00,75.3,70.0,30.03,SSW,202,0.0,0.0,84,0.00,,,0.00,weatherlink.com 1.10,2015-03-26 05:26:00,
2015-03-26 01:41:00,75.2,71.0,30.03,SSW,202,1.0,2.0,85,0.00,,,0.00,weatherlink.com 1.10,2015-03-26 05:41:00,
2015-03-26 01:56:00,75.1,70.0,30.03,SSW,202,1.0,2.0,85,0.00,,,0.00,weatherlink.com 1.10,2015-03-26 05:56:00,
2015-03-26 02:11:00,75.1,71.0,30.02,SSW,202,0.0,0.0,86,0.00,,,0.00,weatherlink.com 1.10,2015-03-26 06:11:00,
2015-03-26 02:26:00,74.9,71.0,30.02,SSW,202,0.0,0.0,86,0.00,,,0.00,weatherlink.com 1.10,2015-03-26 06:26:00,
2015-03-26 02:41:00,74.6,70.0,30.01,SSW,202,0.0,0.0,86,0.00,,,0.00,weatherlink.com 1.10,2015-03-26 06:41:00,
2015-03-26 02:56:00,74.3,70.0,30.01,SSW,202,1.0,3.0,87,0.00,,,0.00,weatherlink.com 1.10,2015-03-26 06:56:00,
2015-03-26 03:11:00,74.2,70.0,30.01,SSW,202,0.0,0.0,87,0.00,,,0.00,weatherlink.com 1.10,2015-03-26 07:11:00,
2015-03-26 03:26:00,74.0,70.0,30.00,SSW,201,1.0,3.0,87,0.00,,,0.00,weatherlink.com 1.10,2015-03-26 07:26:00,
2015-03-26 03:41:00,73.9,70.0,30.00,SSW,202,2.0,3.0,87,0.00,,,0.00,weatherlink.com 1.10,2015-03-26 07:41:00,
2015-03-26 03:56:00,73.7,69.0,29.99,SSW,202,3.0,3.0,86,0.00,,,0.00,weatherlink.com 1.10,2015-03-26 07:56:00,
2015-03-26 04:11:00,73.8,69.0,29.99,SSW,202,2.0,4.0,86,0.00,,,0.00,weatherlink.com 1.10,2015-03-26 08:11:00,
2015-03-26 04:26:00,73.7,69.0,29.99,SSW,202,1.0,3.0,86,0.00,,,0.00,weatherlink.com 1.10,2015-03-26 08:26:00,
2015-03-26 04:41:00,73.7,69.0,29.99,SSW,202,2.0,3.0,86,0.00,,,0.00,weatherlink.com 1.10,2015-03-26 08:41:00,
2015-03-26 04:56:00,73.6,69.0,29.99,SSW,202,2.0,4.0,86,0.00,,,0.00,weatherlink.com 1.10,2015-03-26 08:56:00,
2015-03-26 05:11:00,73.9,70.0,29.99,SSW,202,2.0,4.0,87,0.00,,,0.00,weatherlink.com 1.10,2015-03-26 09:11:00,
2015-03-26 05:26:00,73.9,70.0,29.98,SSW,202,4.0,4.0,87,0.00,,,0.00,weatherlink.com 1.10,2015-03-26 09:26:00,
2015-03-26 05:41:00,74.0,70.0,29.98,SSW,202,2.0,4.0,87,0.00,,,0.00,weatherlink.com 1.10,2015-03-26 09:41:00,
2015-03-26 05:56:00,74.1,70.0,29.98,SSW,202,2.0,4.0,87,0.00,,,0.00,weatherlink.com 1.10,2015-03-26 09:56:00,
2015-03-26 06:11:00,74.2,71.0,29.99,SSW,202,4.0,5.0,88,0.00,,,0.00,weatherlink.com 1.10,2015-03-26 10:11:00,
2015-03-26 06:26:00,74.5,71.0,29.99,SSW,202,3.0,6.0,88,0.00,,,0.00,weatherlink.com 1.10,2015-03-26 10:26:00,
2015-03-26 06:41:00,74.3,71.0,30.00,SSW,202,1.0,4.0,88,0.00,,,0.00,weatherlink.com 1.10,2015-03-26 10:41:00,
2015-03-26 06:56:00,74.4,71.0,30.00,SSW,202,0.0,2.0,89,0.00,,,0.00,weatherlink.com 1.10,2015-03-26 10:56:00,
2015-03-26 07:11:00,74.1,71.0,30.00,SSW,202,0.0,0.0,89,0.00,,,0.00,weatherlink.com 1.10,2015-03-26 11:11:00,
2015-03-26 07:26:00,73.9,71.0,30.01,SSW,202,1.0,2.0,89,0.00,,,0.00,weatherlink.com 1.10,2015-03-26 11:26:00,
2015-03-26 07:41:00,74.0,71.0,30.01,SSW,202,0.0,0.0,90,0.00,,,0.00,weatherlink.com 1.10,2015-03-26 11:41:00,
2015-03-26 07:56:00,74.4,71.0,30.02,SSW,202,2.0,4.0,90,0.00,,,0.00,weatherlink.com 1.10,2015-03-26 11:56:00,
2015-03-26 08:11:00,75.1,72.0,30.03,SSW,203,1.0,3.0,90,0.00,,,0.00,weatherlink.com 1.10,2015-03-26 12:11:00,
2015-03-26 08:26:00,75.9,73.0,30.03,SSW,202,2.0,4.0,89,0.00,,,0.00,weatherlink.com 1.10,2015-03-26 12:26:00,
2015-03-26 08:41:00,77.4,74.0,30.03,SSW,196,4.0,6.0,88,0.00,,,0.00,weatherlink.com 1.10,2015-03-26 12:41:00,
2015-03-26 08:56:00,78.1,74.0,30.04,South,181,3.0,6.0,86,0.00,,,0.00,weatherlink.com 1.10,2015-03-26 12:56:00,
2015-03-26 09:11:00,78.5,74.0,30.04,South,177,5.0,7.0,85,0.00,,,0.00,weatherlink.com 1.10,2015-03-26 13:11:00,
2015-03-26 09:27:00,79.2,74.0,30.04,SSE,163,5.0,8.0,85,0.00,,,0.00,weatherlink.com 1.10,2015-03-26 13:27:00,
2015-03-26 09:41:00,79.6,74.0,30.04,SE,136,7.0,10.0,83,0.00,,,0.00,weatherlink.com 1.10,2015-03-26 13:41:00,
2015-03-26 09:56:00,80.7,74.0,30.04,SE,133,6.0,12.0,81,0.00,,,0.00,weatherlink.com 1.10,2015-03-26 13:56:00,
2015-03-26 10:12:00,81.0,74.0,30.04,SE,143,5.0,12.0,80,0.00,,,0.00,weatherlink.com 1.10,2015-03-26 14:12:00,
2015-03-26 10:27:00,81.4,74.0,30.04,SSE,152,10.0,13.0,78,0.00,,,0.00,weatherlink.com 1.10,2015-03-26 14:27:00,
2015-03-26 10:42:00,81.6,74.0,30.05,SE,127,5.0,11.0,77,0.00,,,0.00,weatherlink.com 1.10,2015-03-26 14:42:00,
2015-03-26 10:57:00,81.9,74.0,30.04,SSE,157,5.0,12.0,76,0.00,,,0.00,weatherlink.com 1.10,2015-03-26 14:57:00,
2015-03-26 11:12:00,82.5,74.0,30.04,ESE,118,10.0,12.0,75,0.00,,,0.00,weatherlink.com 1.10,2015-03-26 15:12:00,
2015-03-26 11:27:00,83.3,74.0,30.04,SE,131,6.0,14.0,74,0.00,,,0.00,weatherlink.com 1.10,2015-03-26 15:27:00,
2015-03-26 11:42:00,85.6,75.0,30.03,SE,129,6.0,15.0,71,0.00,,,0.00,weatherlink.com 1.10,2015-03-26 15:42:00,
2015-03-26 11:57:00,86.9,76.0,30.03,SE,135,13.0,17.0,69,0.00,,,0.00,weatherlink.com 1.10,2015-03-26 15:57:00,
2015-03-26 12:12:00,86.3,75.0,30.02,SE,144,16.0,19.0,69,0.00,,,0.00,weatherlink.com 1.10,2015-03-26 16:12:00,
2015-03-26 12:27:00,86.4,76.0,30.01,SSE,167,10.0,15.0,70,0.00,,,0.00,weatherlink.com 1.10,2015-03-26 16:27:00,
2015-03-26 12:42:00,86.8,75.0,30.00,SE,141,11.0,21.0,68,0.00,,,0.00,weatherlink.com 1.10,2015-03-26 16:42:00,
2015-03-26 12:57:00,88.1,75.0,30.00,South,170,10.0,17.0,66,0.00,,,0.00,weatherlink.com 1.10,2015-03-26 16:57:00,
2015-03-26 13:12:00,88.4,75.0,29.99,SE,146,6.0,20.0,64,0.00,,,0.00,weatherlink.com 1.10,2015-03-26 17:12:00,
2015-03-26 13:27:00,89.4,75.0,29.99,SSE,150,6.0,18.0,63,0.00,,,0.00,weatherlink.com 1.10,2015-03-26 17:27:00,
2015-03-26 13:42:00,88.6,75.0,29.97,SSE,167,6.0,18.0,64,0.00,,,0.00,weatherlink.com 1.10,2015-03-26 17:42:00,
2015-03-26 13:57:00,88.4,76.0,29.96,SE,127,10.0,24.0,67,0.00,,,0.00,weatherlink.com 1.10,2015-03-26 17:57:00,
2015-03-26 14:12:00,88.5,75.0,29.96,SSE,164,9.0,22.0,65,0.00,,,0.00,weatherlink.com 1.10,2015-03-26 18:12:00,
2015-03-26 14:27:00,87.5,75.0,29.96,SSE,161,11.0,27.0,67,0.00,,,0.00,weatherlink.com 1.10,2015-03-26 18:27:00,
2015-03-26 14:42:00,86.5,75.0,29.94,SSE,147,12.0,23.0,68,0.00,,,0.00,weatherlink.com 1.10,2015-03-26 18:42:00,
2015-03-26 14:57:00,86.0,74.0,29.94,SSE,167,12.0,27.0,68,0.00,,,0.00,weatherlink.com 1.10,2015-03-26 18:57:00,
2015-03-26 15:12:00,85.1,75.0,29.93,SSE,168,10.0,23.0,71,0.00,,,0.00,weatherlink.com 1.10,2015-03-26 19:12:00,